Wetterdaten von Donnerstag, 21.11.2019 17:10 bis Freitag, 22.11.2019 17:00
Datum/Zeit Temp. A. Feuchte Luftdruck Regen Solar Sonne Wind Windben Richtung
21.11.2019 17:10 5,8 C 86 % 1.007,7 hpa 3,2 km/h N
21.11.2019 17:20 5,7 C 86 % 1.007,7 hpa 4,8 km/h N
21.11.2019 17:30 5,6 C 87 % 1.007,7 hpa 6,4 km/h N
21.11.2019 17:40 5,6 C 87 % 1.007,7 hpa 4,8 km/h N
21.11.2019 17:50 5,5 C 87 % 1.007,6 hpa N
21.11.2019 18:00 5,4 C 87 % 1.007,4 hpa N
21.11.2019 18:10 5,4 C 86 % 1.007,3 hpa 1,6 km/h 6,4 km/h O
21.11.2019 18:20 5,4 C 86 % 1.007,3 hpa 1,6 km/h 8,0 km/h O
21.11.2019 18:30 5,4 C 86 % 1.007,2 hpa 1,6 km/h 9,7 km/h O
21.11.2019 18:40 5,4 C 85 % 1.007,2 hpa 1,6 km/h 8,0 km/h O
21.11.2019 18:50 5,4 C 85 % 1.007,4 hpa 4,8 km/h N
21.11.2019 19:00 5,4 C 85 % 1.007,3 hpa N
21.11.2019 19:10 5,4 C 85 % 1.007,3 hpa N
21.11.2019 19:20 5,3 C 85 % 1.007,4 hpa N
21.11.2019 19:30 5,2 C 85 % 1.007,4 hpa N
21.11.2019 19:40 5,1 C 85 % 1.007,2 hpa N
21.11.2019 19:50 5,0 C 85 % 1.007,2 hpa N
21.11.2019 20:00 4,9 C 85 % 1.007,2 hpa N
21.11.2019 20:10 4,8 C 85 % 1.007,2 hpa N
21.11.2019 20:20 4,7 C 85 % 1.007,3 hpa N
21.11.2019 20:30 4,6 C 86 % 1.007,4 hpa N
21.11.2019 20:40 4,5 C 86 % 1.007,5 hpa N
21.11.2019 20:50 4,4 C 86 % 1.007,5 hpa N
21.11.2019 21:00 4,4 C 87 % 1.007,4 hpa N
21.11.2019 21:10 4,3 C 87 % 1.007,5 hpa N
21.11.2019 21:20 4,3 C 87 % 1.007,5 hpa N
21.11.2019 21:30 4,2 C 87 % 1.007,2 hpa N
21.11.2019 21:40 4,2 C 88 % 1.007,2 hpa N
21.11.2019 21:50 4,1 C 88 % 1.007,1 hpa N
21.11.2019 22:00 4,1 C 88 % 1.007,2 hpa N
21.11.2019 22:10 4,1 C 89 % 1.007,2 hpa N
21.11.2019 22:20 4,1 C 89 % 1.007,1 hpa N
21.11.2019 22:30 4,1 C 89 % 1.007,0 hpa N
21.11.2019 22:40 4,1 C 89 % 1.007,0 hpa N
21.11.2019 22:50 4,1 C 90 % 1.007,0 hpa 4,8 km/h N
21.11.2019 23:00 4,2 C 90 % 1.006,9 hpa 3,2 km/h N
21.11.2019 23:10 4,2 C 90 % 1.006,9 hpa N
21.11.2019 23:20 4,2 C 90 % 1.007,0 hpa N
21.11.2019 23:30 4,2 C 90 % 1.007,0 hpa N
21.11.2019 23:40 4,2 C 90 % 1.007,1 hpa N
21.11.2019 23:50 4,2 C 90 % 1.007,1 hpa N
22.11.2019 00:00 4,2 C 90 % 1.007,0 hpa N
22.11.2019 00:10 4,3 C 90 % 1.007,0 hpa N
22.11.2019 00:20 4,3 C 90 % 1.007,1 hpa N
22.11.2019 00:30 4,4 C 91 % 1.006,9 hpa 1,6 km/h N
22.11.2019 00:40 4,5 C 91 % 1.006,9 hpa 1,6 km/h N
22.11.2019 00:50 4,5 C 91 % 1.007,0 hpa N
22.11.2019 01:00 4,5 C 91 % 1.006,9 hpa 1,6 km/h 4,8 km/h O
22.11.2019 01:10 4,5 C 91 % 1.006,9 hpa 1,6 km/h 4,8 km/h O
22.11.2019 01:20 4,4 C 91 % 1.006,9 hpa 3,2 km/h N
22.11.2019 01:30 4,4 C 90 % 1.007,0 hpa N
22.11.2019 01:40 4,3 C 90 % 1.006,9 hpa N
22.11.2019 01:50 4,2 C 90 % 1.006,8 hpa N
22.11.2019 02:00 4,1 C 90 % 1.006,8 hpa N
22.11.2019 02:10 4,1 C 90 % 1.006,8 hpa N
22.11.2019 02:20 4,0 C 90 % 1.006,8 hpa N
22.11.2019 02:30 3,9 C 91 % 1.006,8 hpa N
22.11.2019 02:40 3,9 C 91 % 1.006,8 hpa N
22.11.2019 02:50 3,9 C 91 % 1.007,0 hpa 3,2 km/h N
22.11.2019 03:00 3,8 C 91 % 1.006,9 hpa N
22.11.2019 03:10 3,8 C 91 % 1.006,9 hpa 4,8 km/h N
22.11.2019 03:20 3,9 C 91 % 1.006,8 hpa 1,6 km/h 6,4 km/h O
22.11.2019 03:30 3,9 C 91 % 1.006,9 hpa 1,6 km/h 6,4 km/h O
22.11.2019 03:40 3,9 C 91 % 1.007,1 hpa 1,6 km/h N
22.11.2019 03:50 3,9 C 91 % 1.007,1 hpa 1,6 km/h N
22.11.2019 04:00 3,9 C 91 % 1.007,0 hpa 4,8 km/h N
22.11.2019 04:10 3,9 C 91 % 1.007,0 hpa 1,6 km/h 4,8 km/h O
22.11.2019 04:20 3,9 C 91 % 1.006,9 hpa N
22.11.2019 04:30 4,0 C 92 % 1.007,0 hpa 1,6 km/h 8,0 km/h O
22.11.2019 04:40 4,1 C 92 % 1.007,1 hpa 1,6 km/h 4,8 km/h O
22.11.2019 04:50 4,2 C 92 % 1.007,1 hpa 1,6 km/h 9,7 km/h O
22.11.2019 05:00 4,2 C 92 % 1.007,2 hpa 1,6 km/h 6,4 km/h O
22.11.2019 05:10 4,3 C 92 % 1.007,2 hpa 6,4 km/h N
22.11.2019 05:20 4,4 C 92 % 1.007,3 hpa N
22.11.2019 05:30 4,4 C 92 % 1.007,2 hpa N
22.11.2019 05:40 4,5 C 92 % 1.007,3 hpa 6,4 km/h N
22.11.2019 05:50 4,6 C 91 % 1.007,2 hpa 4,8 km/h N
22.11.2019 06:00 4,7 C 92 % 1.007,3 hpa 4,8 km/h N
22.11.2019 06:10 4,7 C 91 % 1.007,3 hpa N
22.11.2019 06:20 4,8 C 91 % 1.007,2 hpa 4,8 km/h N
22.11.2019 06:30 4,9 C 91 % 1.007,1 hpa 3,2 km/h 8,0 km/h O
22.11.2019 06:40 5,0 C 91 % 1.007,2 hpa 1,6 km/h 8,0 km/h O
22.11.2019 06:50 5,1 C 91 % 1.007,2 hpa 4,8 km/h N
22.11.2019 07:00 5,1 C 91 % 1.007,3 hpa 4,8 km/h N
22.11.2019 07:10 5,2 C 91 % 1.007,3 hpa N
22.11.2019 07:20 5,2 C 91 % 1.007,4 hpa 8,0 km/h N
22.11.2019 07:30 5,2 C 91 % 1.007,6 hpa 3,2 km/h N
22.11.2019 07:40 5,3 C 90 % 1.008,0 hpa N
22.11.2019 07:50 5,3 C 90 % 1.008,0 hpa 1,6 km/h 14,5 km/h S/SO
22.11.2019 08:00 5,3 C 90 % 1.007,9 hpa 9,7 km/h N
22.11.2019 08:10 5,4 C 89 % 1.008,0 hpa 3,2 km/h 11,3 km/h S/SO
22.11.2019 08:20 5,4 C 89 % 1.008,1 hpa 3,2 km/h 14,5 km/h S/SO
22.11.2019 08:30 5,4 C 89 % 1.008,3 hpa 3 W/m 1,6 km/h 8,0 km/h S/SO
22.11.2019 08:40 5,5 C 89 % 1.008,1 hpa 15 W/m 1,6 km/h 9,7 km/h S/SO
22.11.2019 08:50 5,5 C 88 % 1.008,1 hpa 11 W/m 6,4 km/h N
22.11.2019 09:00 5,5 C 88 % 1.008,2 hpa 9 W/m 8,0 km/h N
22.11.2019 09:10 5,5 C 88 % 1.008,4 hpa 10 W/m 4,8 km/h N
22.11.2019 09:20 5,4 C 88 % 1.008,4 hpa 15 W/m 3,2 km/h N
22.11.2019 09:30 5,5 C 89 % 1.008,4 hpa 22 W/m N
22.11.2019 09:40 5,5 C 89 % 1.008,4 hpa 36 W/m N
22.11.2019 09:50 5,6 C 89 % 1.008,4 hpa 37 W/m N
22.11.2019 10:00 5,7 C 89 % 1.008,4 hpa 41 W/m 3,2 km/h N
22.11.2019 10:10 5,8 C 89 % 1.008,3 hpa 50 W/m N
22.11.2019 10:20 5,9 C 89 % 1.008,4 hpa 58 W/m 8,0 km/h N
22.11.2019 10:30 6,1 C 89 % 1.008,3 hpa 67 W/m 1,6 km/h 6,4 km/h S/SO
22.11.2019 10:40 6,3 C 89 % 1.008,1 hpa 71 W/m 4,8 km/h 11,3 km/h S/SO
22.11.2019 10:50 6,4 C 88 % 1.008,1 hpa 91 W/m 4,8 km/h 14,5 km/h S/SO
22.11.2019 11:00 6,6 C 87 % 1.008,0 hpa 78 W/m 6,4 km/h 16,1 km/h S/SO
22.11.2019 11:10 6,7 C 87 % 1.008,0 hpa 73 W/m 4,8 km/h 11,3 km/h S/SO
22.11.2019 11:20 6,8 C 87 % 1.007,8 hpa 152 W/m 10 min 4,8 km/h 11,3 km/h S/SO
22.11.2019 11:30 7,3 C 86 % 1.007,9 hpa 154 W/m 10 min 3,2 km/h 11,3 km/h S/SO
22.11.2019 11:40 7,4 C 85 % 1.007,9 hpa 128 W/m 10 min 1,6 km/h 11,3 km/h S/SO
22.11.2019 11:50 7,4 C 85 % 1.007,8 hpa 95 W/m 4,8 km/h 12,9 km/h S/SO
22.11.2019 12:00 7,4 C 84 % 1.007,5 hpa 79 W/m 3,2 km/h 12,9 km/h S/SO
22.11.2019 12:10 7,3 C 85 % 1.007,5 hpa 127 W/m 10 min 3,2 km/h 14,5 km/h S/SO
22.11.2019 12:20 7,4 C 84 % 1.007,3 hpa 164 W/m 10 min 4,8 km/h 16,1 km/h S/SO
22.11.2019 12:30 7,4 C 84 % 1.007,3 hpa 140 W/m 10 min 4,8 km/h 17,7 km/h S/SO
22.11.2019 12:40 7,5 C 84 % 1.007,2 hpa 133 W/m 10 min 3,2 km/h 11,3 km/h S/SO
22.11.2019 12:50 7,7 C 84 % 1.007,1 hpa 245 W/m 10 min 4,8 km/h 16,1 km/h S/SO
22.11.2019 13:00 8,2 C 82 % 1.007,2 hpa 295 W/m 10 min 4,8 km/h 16,1 km/h S/SO
22.11.2019 13:10 8,3 C 81 % 1.006,8 hpa 221 W/m 10 min 8,0 km/h 17,7 km/h S/SO
22.11.2019 13:20 8,1 C 82 % 1.006,9 hpa 159 W/m 10 min 8,0 km/h 17,7 km/h S/SO
22.11.2019 13:30 7,9 C 82 % 1.007,0 hpa 210 W/m 10 min 3,2 km/h 16,1 km/h S/SO
22.11.2019 13:40 7,8 C 82 % 1.006,7 hpa 238 W/m 10 min 4,8 km/h 19,3 km/h S/SO
22.11.2019 13:50 7,7 C 82 % 1.006,6 hpa 223 W/m 10 min 1,6 km/h 14,5 km/h S/SO
22.11.2019 14:00 7,7 C 82 % 1.006,8 hpa 184 W/m 10 min 3,2 km/h 17,7 km/h S/SO
22.11.2019 14:10 7,6 C 82 % 1.006,7 hpa 219 W/m 10 min 3,2 km/h 16,1 km/h S/SO
22.11.2019 14:20 7,6 C 82 % 1.006,5 hpa 193 W/m 10 min 3,2 km/h 16,1 km/h S/SO
22.11.2019 14:30 7,4 C 83 % 1.006,5 hpa 197 W/m 10 min 3,2 km/h 17,7 km/h S/SO
22.11.2019 14:40 7,2 C 83 % 1.006,6 hpa 137 W/m 10 min 4,8 km/h 17,7 km/h S/SO
22.11.2019 14:50 7,0 C 84 % 1.006,5 hpa 121 W/m 10 min 4,8 km/h 17,7 km/h S/SO
22.11.2019 15:00 6,7 C 85 % 1.006,5 hpa 115 W/m 8,0 km/h 22,5 km/h S/SO
22.11.2019 15:10 6,5 C 85 % 1.006,5 hpa 87 W/m 4,8 km/h 19,3 km/h S/SO
22.11.2019 15:20 6,3 C 85 % 1.006,7 hpa 51 W/m 4,8 km/h 19,3 km/h S/SO
22.11.2019 15:30 6,3 C 85 % 1.006,9 hpa 40 W/m 3,2 km/h 14,5 km/h S/SO
22.11.2019 15:40 6,1 C 85 % 1.006,9 hpa 33 W/m 4,8 km/h 17,7 km/h O
22.11.2019 15:50 5,9 C 86 % 1.006,8 hpa 24 W/m 1,6 km/h 19,3 km/h S/SO
22.11.2019 16:00 5,7 C 86 % 1.006,8 hpa 18 W/m 4,8 km/h 16,1 km/h O
22.11.2019 16:10 5,4 C 87 % 1.006,8 hpa 12 W/m 3,2 km/h 14,5 km/h O
22.11.2019 16:20 5,3 C 87 % 1.006,9 hpa 6 W/m 3,2 km/h 11,3 km/h O
22.11.2019 16:30 5,1 C 87 % 1.006,8 hpa 1,6 km/h 11,3 km/h S/SO
22.11.2019 16:40 4,9 C 88 % 1.006,9 hpa 1,6 km/h 14,5 km/h O
22.11.2019 16:50 4,8 C 88 % 1.006,9 hpa 3,2 km/h 9,7 km/h O
22.11.2019 17:00 4,7 C 88 % 1.006,7 hpa 3,2 km/h 12,9 km/h S/SO
Minimum: 3,8 C
03:10
81 %
13:10
1.006,5 hpa
15:10

17:00

17:00

10:20
5,8 km/h
10:10
O
14,6%
Maximum: 8,3 C
13:10
92 %
06:00
1.008,4 hpa
10:20

17:00
295 W/m
13:00
8,0 km/h
15:00
22,5 km/h
15:00
N
58,3%
Durchschnitt/
Summe:
5,3 C 88 % 1.007,3 hpa # 34 W/m 1,4 km/h 6,3 km/h N/NO
44,2